Volver al catálogo

COSMOS 1523

ActivoMilitarLEO
NORAD 14612·PAYLOAD·🇷🇺 Russia

Lanzado Jan 5, 1984 desde Plesetsk Cosmodrome

Loading…

Próximos Pases (próximas 24 horas)

TLE

ActualizadoSource: Space-Track

Época: Sep 14, 2026, 07:56 UTC

1 14612U 84001B   26257.33077634 -.00000014  00000-0  15498-4 0  9999
2 14612  74.0038 212.2558 0040878  76.7542  75.9325 12.58657828961505

Sigue COSMOS 1523 en tiempo real con AllMySat

Download on the App Store